SERIAL,TIME,MODEL,SN(OPTODE),OXYGEN,SATURATION,TEMPERATURE,CALPHASE,TCPHASE,C1RPH,C2RPH,C1AMP,C2AMP,RAWTEMP,CHECK
7,1448412747,4330,1171,191.3983001708984400,54.6549415588378900,10.2465896606445310,36.9556503295898440,38.1515197753906250,40.2749214172363300,2.1233980655670166,1081.0999755859375000,1021.0029907226562000,562.9257202148438000,8194
7,1448416347,4330,1171,187.0576019287109400,53.4088706970214840,10.2413702011108400,37.2448196411132800,38.4368286132812500,40.5371704101562500,2.1003420352935790,1091.1619873046875000,1021.2399902343750000,563.0872802734375000,14115
7,1448419947,4330,1171,187.9826049804687500,52.9299201965332000,9.6508293151855470,37.5049896240234400,38.6935310363769500,40.7808990478515600,2.0873720645904540,1101.5889892578125000,1029.2840576171875000,581.3173828125000000,43119
7,1448423547,4330,1171,187.4947967529297000,52.6235504150390600,9.5158653259277340,37.6104316711425800,38.7975616455078100,40.8677101135253900,2.0701448917388916,1105.3740234375000000,1031.0240478515625000,585.4699707031250000,13212
7,1448427147,4330,1171,187.9436950683593800,52.7826805114746100,9.5422611236572270,37.5666694641113300,38.7543907165527340,40.8097801208496100,2.0553970336914062,1103.7480468750000000,1030.5500488281250000,584.6583251953125000,48567
7,1448430747,4330,1171,187.9020996093750000,52.4080314636230500,9.2527046203613280,37.7286300659179700,38.9141807556152340,40.9587097167968750,2.0445249080657960,1109.9549560546875000,1034.3659667968750000,593.5523071289062000,41326
7,1448434347,4330,1171,188.4819946289062500,52.5045394897460940,9.2008132934570310,37.7181091308593750,38.9038009643554700,40.9372291564941400,2.0334239006042480,1109.7070312500000000,1035.1800537109375000,595.1436767578125000,62303
7,1448437947,4330,1171,188.3912963867187500,52.3358688354492200,9.0865039825439450,37.7875900268554700,38.9723510742187500,40.9963111877441400,2.0239560604095460,1112.4580078125000000,1036.7330322265625000,598.6464233398438000,53217
7,1448441547,4330,1171,188.8392944335937500,52.0142707824707000,8.7314186096191400,37.9549102783203100,39.1374397277832000,41.1553001403808600,2.0178680419921875,1118.6269531250000000,1041.3179931640625000,609.5029296875000000,60974
7,1448445147,4330,1171,190.0048065185547000,52.3166007995605500,8.7166023254394530,37.8862609863281250,39.0697097778320300,41.0769805908203100,2.0072710514068604,1116.3089599609375000,1041.6440429687500000,609.9550781250000000,63684
7,1448448747,4330,1171,189.2713012695312500,52.0293998718261700,8.6488132476806640,37.9717597961425800,39.1540718078613300,41.1515197753906250,1.9974520206451416,1119.3669433593750000,1042.5799560546875000,612.0231933593750000,38161
7,1448452347,4330,1171,195.5935974121093800,53.4369392395019500,8.3942298889160160,37.7035713195800800,38.8894615173339840,40.8787689208984400,1.9893109798431396,1110.5389404296875000,1046.0689697265625000,619.7777099609375000,58172
7,1448455436,4330,1171,195.7451934814453000,53.4740486145019500,8.3909053802490230,37.6959686279296900,38.8819618225097660,40.8651084899902340,1.9831540584564210,1110.1440429687500000,1044.9780273437500000,619.8787841796875000,43682
7,1448456079,4330,1171,187.2863006591797000,51.7871208190918000,8.8925476074218750,37.9685211181640600,39.1508712768554700,41.1524009704589840,2.0015339851379395,1119.1109619140625000,1040.4919433593750000,604.5811157226562000,52102
7,1448456646,4330,1171,183.1741027832031200,52.0328292846679700,10.0236501693725590,37.6247100830078100,38.8116493225097660,40.8958587646484400,2.0842061042785645,1104.7230224609375000,1025.2919921875000000,569.8193969726562000,14640
7,1448458394,4330,1171,205.9897003173828000,61.9996414184570300,12.5327901840209960,34.8424301147460940,36.0665283203125000,38.3407592773437500,2.2742309570312500,1002.9550170898438000,991.8231811523438000,491.4905090332031000,45196
7,1448458960,4330,1171,217.0355987548828000,66.4581298828125000,13.3006296157836910,33.8170394897460940,35.0548286437988300,37.3771781921386700,2.3223500251770020,965.4047851562500000,981.6934204101562000,467.2214050292969000,37324
7,1448460115,4330,1171,235.6338958740234400,73.8996276855468800,14.3849401473999020,32.3002204895019500,33.5582695007324200,35.9328689575195300,2.3745961189270020,909.6262817382812000,967.2158203125000000,432.7435913085937500,1750
7,1448460137,4330,1171,235.0679016113281200,73.7699966430664000,14.4146795272827150,32.3141899108886700,33.5720596313476560,35.9486312866210940,2.3765718936920166,910.0667724609375000,966.3217163085938000,431.7947082519531000,27518
7,1448460158,4330,1171,235.0977935791015600,73.8190689086914000,14.4393100738525390,32.3007392883300800,33.5587806701660160,35.9381408691406250,2.3793559074401855,909.3587036132812000,965.5922241210938000,431.0086975097656000,33158
7,1448460179,4330,1171,235.1179046630859400,73.8538513183593800,14.4569797515869140,32.2912101745605500,33.5493888854980500,35.9314689636230500,2.3820879459381104,908.8499755859375000,965.0117797851562000,430.4448852539062500,63551
7,1448460200,4330,1171,235.2532958984375000,73.9052963256836000,14.4624900817871100,32.2818794250488300,33.5401802062988300,35.9243011474609400,2.3841249942779540,908.4965820312500000,964.6309814453125000,430.2690124511719000,49895
7,1448460223,4330,1171,235.2910003662109400,73.9272689819336000,14.4687404632568360,32.2770996093750000,33.5354614257812500,35.9185409545898440,2.3830800056457520,908.2282714843750000,964.4630126953125000,430.0697021484375000,13310
7,1448460245,4330,1171,235.3957977294922000,73.9645004272461000,14.4714298248291020,32.2702484130859400,33.5287017822265600,35.9128684997558600,2.3841710090637207,908.1250000000000000,964.2890014648438000,429.9836120605469000,44402
7,1448460266,4330,1171,235.4777984619140600,73.9949569702148400,14.4743204116821290,32.2647781372070300,33.5233116149902340,35.9084892272949200,2.3851850032806396,907.9030151367188000,963.9619750976562000,429.8913879394531000,34240
7,1448460287,4330,1171,235.4082946777343800,73.9847793579101600,14.4815502166748050,32.2649497985839840,33.5234718322753900,35.9087982177734400,2.3853299617767334,907.8115844726562000,963.8931274414062000,429.6607055664062500,48521
7,1448460308,4330,1171,235.3609008789062500,74.0030212402343800,14.5021095275878900,32.2572402954101560,33.5158691406250000,35.9012985229492200,2.3854289054870605,907.5601806640625000,963.6163940429688000,429.0044860839844000,13673
7,1448460329,4330,1171,235.1365966796875000,73.9953231811523400,14.5410499572753900,32.2499885559082000,33.5087089538574200,35.8924598693847660,2.3837509155273438,907.3264160156250000,963.5471801757812000,427.7614135742187500,54533
7,1448460385,4330,1171,234.8869018554687500,74.0121383666992200,14.6002702713012700,32.2339591979980500,33.4928894042968750,35.8753700256347660,2.3824770450592040,906.7767944335938000,963.8497924804688000,425.8703918457031000,22640
7,1448460425,4330,1171,234.9179992675781200,74.0366592407226600,14.6093702316284180,32.2280502319335940,33.4870681762695300,35.8695487976074200,2.3824839591979980,906.5125122070312000,963.5460205078125000,425.5795898437500000,34580
7,1448460446,4330,1171,234.8258972167968800,74.0601196289062500,14.6419801712036130,32.2168502807617200,33.4760093688964840,35.8597984313964840,2.3837890625000000,906.2391967773438000,962.9672241210938000,424.5380859375000000,16991
7,1448460477,4330,1171,234.8182983398437500,74.0991821289062500,14.6676998138427730,32.2050514221191400,33.4643707275390600,35.8468894958496100,2.3825230598449707,905.6118164062500000,962.6345214843750000,423.7160949707031000,20338
7,1448460498,4330,1171,234.8571929931640600,74.1205596923828100,14.6733503341674800,32.2003517150878900,33.4597282409668000,35.8460502624511700,2.3863220214843750,905.4390258789062000,962.1505126953125000,423.5356140136719000,23651
7,1448460528,4330,1171,234.9067993164062500,74.1439514160156200,14.6781196594238280,32.1957588195800800,33.4552116394043000,35.8396301269531250,2.3844220638275146,905.2310180664062000,962.1234741210938000,423.3832092285156000,2937
7,1448460557,4330,1171,234.9275970458984400,74.1658172607421900,14.6876296997070310,32.1899108886718750,33.4494400024414060,35.8351097106933600,2.3856739997863770,904.9578247070312000,962.0128784179688000,423.0793151855469000,52039
7,1448460586,4330,1171,234.8390960693359400,74.1694564819336000,14.7072296142578120,32.1849708557128900,33.4445610046386700,35.8292083740234400,2.3846440315246580,904.7548217773438000,961.9025268554688000,422.4531860351562500,7617
7,1448460641,4330,1171,234.9765014648437500,74.2726821899414000,14.7442798614501950,32.1602096557617200,33.4201393127441400,35.8049201965332000,2.3847889900207520,903.9271240234375000,962.0789184570312000,421.2687988281250000,37982
7,1448460684,4330,1171,234.8538055419922000,74.2980117797851600,14.7840404510498050,32.1475296020507800,33.4076194763183600,35.7901115417480500,2.3824839591979980,903.3477783203125000,961.8198852539062000,419.9977111816406000,23842
7,1448460706,4330,1171,234.7306060791015600,74.3324813842773400,14.8296203613281250,32.1317901611328100,33.3920898437500000,35.7755508422851560,2.3834609985351562,902.8087768554688000,961.0568847656250000,418.5403137207031000,49908
7,1448460729,4330,1171,234.7191009521484400,74.3876190185546900,14.8660898208618160,32.1150016784668000,33.3755302429199200,35.7611083984375000,2.3855819702148438,902.0300903320312000,960.3842163085938000,417.3739013671875000,41490
7,1448460750,4330,1171,234.8314056396484400,74.4408111572265600,14.8769702911376950,32.1044006347656250,33.3650703430175800,35.7540206909179700,2.3889539241790770,901.6154785156250000,959.8417968750000000,417.0260009765625000,26152
7,1448460771,4330,1171,234.8616027832031200,74.4759292602539000,14.8928203582763670,32.0952987670898440,33.3560905456543000,35.7457389831543000,2.3896479606628420,901.2565917968750000,959.5078735351562000,416.5188903808594000,42585
7,1448460792,4330,1171,234.7389984130859400,74.5061569213867200,14.9356803894042970,32.0810089111328100,33.3419914245605500,35.7321891784668000,2.3901979923248290,900.5858154296875000,959.0468139648438000,415.1477966308594000,47521
7,1448460814,4330,1171,234.8406982421875000,74.5824432373046900,14.9629297256469730,32.0627098083496100,33.3239288330078100,35.7163009643554700,2.3923718929290770,899.8826293945312000,958.6616821289062000,414.2760009765625000,4540
7,1448460835,4330,1171,234.8128967285156200,74.6471328735351600,15.0084896087646480,32.0424613952636700,33.3039588928222660,35.6973686218261700,2.3934168815612793,899.2056884765625000,958.3217773437500000,412.8176879882812500,54883
7,1448460858,4330,1171,235.0413055419922000,74.7499618530273400,15.0271902084350590,32.0219802856445300,33.2837409973144500,35.6789207458496100,2.3951799869537354,898.2335205078125000,957.7947998046875000,412.2190856933594000,24238
7,1448460879,4330,1171,235.1522064208984400,74.8077011108398400,15.0410900115966800,32.0097885131835940,33.2717208862304700,35.6664505004882800,2.3947300910949707,897.7382202148438000,957.4821777343750000,411.7742919921875000,23494
7,1448460900,4330,1171,235.3589019775390600,74.8925628662109400,15.0528802871704100,31.9939193725585940,33.2560615539550800,35.6535415649414060,2.3974840641021730,897.2905273437500000,957.3336181640625000,411.3966064453125000,52539
7,1448460922,4330,1171,235.4284057617187500,74.9373168945312500,15.0668497085571290,31.9839591979980470,33.2462387084960940,35.6452789306640600,2.3990399837493896,896.9083862304688000,957.0935058593750000,410.9491882324219000,32411
7,1448460943,4330,1171,235.2805938720703000,74.9274520874023400,15.0898399353027340,31.9805107116699220,33.2428283691406250,35.6420097351074200,2.3991849422454834,896.6149902343750000,956.7761230468750000,410.2132873535156000,28020
7,1448460964,4330,1171,235.4461975097656200,75.0023117065429700,15.1035299301147460,31.9654407501220700,33.2279586791992200,35.6279411315918000,2.3999791145324707,896.0175170898438000,956.4901123046875000,409.7749938964844000,13952
7,1448460987,4330,1171,235.7156066894531200,75.1505432128906200,15.1420097351074220,31.9338302612304700,33.1967697143554700,35.5976982116699200,2.4009320735931396,894.9835815429688000,956.3129882812500000,408.5423889160156000,42447
7,1448461008,4330,1171,235.7113037109375000,75.2082824707031200,15.1784801483154300,31.9165992736816400,33.1797790527343750,35.5807113647460940,2.4009320735931396,894.2160034179688000,955.7625732421875000,407.3741149902344000,9656
7,1448461030,4330,1171,235.8531036376953000,75.2980117797851600,15.2058696746826170,31.8965797424316400,33.1600303649902340,35.5622100830078100,2.4021840095520020,893.4921875000000000,955.5296020507812000,406.4966125488281000,24397
7,1448461051,4330,1171,235.8833007812500000,75.3557815551757800,15.2355203628540040,31.8811607360839840,33.1448097229003900,35.5463409423828100,2.4015350341796875,892.7572021484375000,955.1516113281250000,405.5463867187500000,37815
7,1448461072,4330,1171,236.1593933105468800,75.5300369262695300,15.2884798049926760,31.8423194885253900,33.1064910888671900,35.5114097595214840,2.4049150943756104,891.5020751953125000,954.7531127929688000,403.8493041992187500,50622
7,1448461101,4330,1171,236.6956939697265600,75.7333068847656200,15.3079395294189450,31.8066196441650400,33.0712699890136700,35.4772415161132800,2.4059751033782960,890.2318115234375000,954.7285156250000000,403.2253112792969000,53351
7,1448461124,4330,1171,237.0081939697265600,75.8497695922851600,15.3180503845214840,31.7863998413085940,33.0513191223144500,35.4592895507812500,2.4079740047454834,889.4257812500000000,954.1901855468750000,402.9013977050781000,36853
7,1448461146,4330,1171,237.0030975341797000,75.8701629638671900,15.3315496444702150,31.7800407409667970,33.0450401306152340,35.4516296386718750,2.4065859317779540,888.9777832031250000,953.7990722656250000,402.4684143066406000,9935
7,1448461167,4330,1171,237.1764984130859400,75.9418563842773400,15.3414697647094730,31.7668895721435550,33.0320701599121100,35.4417495727539060,2.4096829891204834,888.4774780273438000,953.5405273437500000,402.1503906250000000,55554
7,1448461188,4330,1171,237.3553924560547000,76.0066604614257800,15.3460597991943360,31.7558898925781250,33.0212097167968750,35.4304504394531250,2.4092409610748290,888.2083129882812000,953.3665771484375000,402.0031127929687500,37309
7,1448461217,4330,1171,237.5769042968750000,76.0941162109375000,15.3561801910400390,31.7402400970459000,33.0057716369628900,35.4161415100097660,2.4103701114654540,887.6248779296875000,953.4827880859375000,401.6788940429687500,21076
7,1448461238,4330,1171,237.7012023925781200,76.1597595214843800,15.3719501495361330,31.7265701293945300,32.9922790527343750,35.4013710021972660,2.4090878963470460,887.0020751953125000,953.2305297851562000,401.1729125976562500,57588
7,1448461262,4330,1171,237.8125000000000000,76.2584304809570300,15.4104204177856450,31.7029590606689450,32.9689903259277340,35.3782501220703100,2.4092559814453125,886.2465209960938000,953.0620117187500000,399.9393920898437500,28215
7,1448461283,4330,1171,237.8502044677734400,76.3212890625000000,15.4414100646972660,31.6863594055175780,32.9526100158691400,35.3627510070800800,2.4101409912109375,885.6082153320312000,952.6591186523438000,398.9450988769531000,42199
7,1448461312,4330,1171,237.6044006347656200,76.3578720092773400,15.5119400024414060,31.6654701232910160,32.9319992065429700,35.3425483703613300,2.4105529785156250,884.8065185546875000,952.3513183593750000,396.6825866699219000,47781
7,1448461333,4330,1171,237.5086975097656200,76.3470764160156200,15.5241498947143550,31.6644706726074220,32.9310188293457000,35.3436088562011700,2.4125978946685790,884.7584838867188000,951.8784790039062000,396.2905883789062500,5757
7,1448461354,4330,1171,237.4747924804687500,76.3585968017578100,15.5378503799438480,31.6597595214843750,32.9263610839843750,35.3400115966796900,2.4136509895324707,884.4072875976562000,951.4124755859375000,395.8511047363281000,15683
7,1448461386,4330,1171,237.2404937744140600,76.3697586059570300,15.5907201766967770,31.6462802886962900,32.9130592346191400,35.3294410705566400,2.4163820743560790,883.9752807617188000,951.4730224609375000,394.1538085937500000,6983
7,1448461407,4330,1171,236.9181060791015600,76.3012084960937500,15.6123104095458980,31.6521606445312500,32.9188613891601560,35.3355789184570300,2.4167180061340330,884.2064208984375000,950.8264770507812000,393.4609069824219000,26245
7,1448461428,4330,1171,236.4803009033203000,76.2101364135742200,15.6429395675659180,31.6595497131347660,32.9261589050293000,35.3437614440918000,2.4176030158996580,884.3314819335938000,950.4089965820312000,392.4776000976562500,10012
7,1448461449,4330,1171,236.2487945556640600,76.1360397338867200,15.6432399749755860,31.6708507537841800,32.9373016357421900,35.3574409484863300,2.4201428890228270,884.6289062500000000,950.0618286132812000,392.4679870605469000,2505
7,1448461478,4330,1171,236.1235961914062500,76.1032028198242200,15.6478500366210940,31.6749992370605470,32.9413986206054700,35.3611297607421900,2.4197309017181396,884.8250732421875000,950.1405029296875000,392.3197937011719000,35223
7,1448461500,4330,1171,235.6123962402343800,75.9822387695312500,15.6748104095458980,31.6872901916503900,32.9535293579101560,35.3735008239746100,2.4199750423431396,885.1676025390625000,949.9000854492188000,391.4540100097656000,18409
7,1448461523,4330,1171,235.3137054443359400,75.9459228515625000,15.7117996215820310,31.6850395202636720,32.9513092041015600,35.3740501403808600,2.4227449893951416,885.1865234375000000,949.4782714843750000,390.2662048339844000,6434
7,1448461552,4330,1171,234.6665039062500000,75.7909698486328100,15.7451095581054690,31.7016696929931640,32.9677085876464840,35.3900718688964840,2.4223558902740480,885.8914184570312000,949.4622192382812000,389.1961975097656000,38368
7,1448461573,4330,1171,234.1587982177734400,75.6496887207031200,15.7591600418090820,31.7205295562744140,32.9863204956054700,35.4086494445800800,2.4223330020904540,886.2520141601562000,948.7424926757812000,388.7448120117187500,1434
7,1448461594,4330,1171,233.8298950195312500,75.5831527709961000,15.7837896347045900,31.7254390716552730,32.9911689758300800,35.4159507751464840,2.4247889518737793,886.5098876953125000,948.4478759765625000,387.9536132812500000,64599
7,1448461624,4330,1171,233.1555023193359400,75.4406509399414000,15.8307104110717770,31.7370700836181640,33.0026397705078100,35.4277496337890600,2.4251101016998290,886.8941040039062000,948.4456176757812000,386.4457092285156000,16881
7,1448461647,4330,1171,232.8141937255859400,75.3960418701171900,15.8716602325439450,31.7350292205810550,33.0006294250488300,35.4271392822265600,2.4265060424804688,886.7786254882812000,947.9578857421875000,385.1296081542969000,40212
7,1448461676,4330,1171,232.5691986083984400,75.3592376708984400,15.8981800079345700,31.7351703643798830,33.0007705688476560,35.4290618896484400,2.4282910823822020,886.7399291992188000,947.6984252929688000,384.2774963378906000,30792
7,1448461697,4330,1171,232.3032073974609400,75.3025436401367200,15.9165601730346680,31.7396392822265620,33.0051803588867200,35.4330902099609400,2.4279100894927980,886.7811889648438000,947.1248779296875000,383.6864929199219000,3833
7,1448461718,4330,1171,232.1410980224609400,75.2809982299804700,15.9359302520751950,31.7388801574707030,33.0044288635253900,35.4360389709472660,2.4316020011901855,886.7548217773438000,946.7595214843750000,383.0638122558594000,33777
7,1448461740,4330,1171,231.6542053222656200,75.1765136718750000,15.9693002700805660,31.7476406097412100,33.0130691528320300,35.4454498291015600,2.4323809146881104,886.9650878906250000,946.4697875976562000,381.9909057617187500,65160
7,1448461803,4330,1171,230.7173004150390600,75.0063934326171900,16.0533599853515620,31.7560005187988280,33.0213203430175800,35.4542808532714840,2.4329609870910645,887.3566284179688000,946.8353881835938000,379.2872924804687500,32510
7,1448461847,4330,1171,230.2261047363281200,74.9181365966796900,16.0982608795166000,31.7599792480468750,33.0252494812011700,35.4603691101074200,2.4351270198822020,887.2545776367188000,945.9613037109375000,377.8428955078125000,8507
7,1448461868,4330,1171,230.1177978515625000,74.9329299926757800,16.1297206878662100,31.7507705688476560,33.0161590576171900,35.4536094665527340,2.4374470710754395,886.9656982421875000,945.0062255859375000,376.8304138183594000,28508
7,1448461891,4330,1171,229.9365997314453000,74.9075469970703100,16.1508903503417970,31.7501296997070300,33.0155296325683600,35.4544601440429700,2.4389340877532960,886.8640747070312000,944.7396850585938000,376.1492919921875000,56687
7,1448461913,4330,1171,229.5122070312500000,74.8856735229492200,16.2242298126220700,31.7375106811523440,33.0030708312988300,35.4444313049316400,2.4413530826568604,886.2636718750000000,944.0980224609375000,373.7887878417969000,55944
7,1448461934,4330,1171,229.3531951904297000,74.8763885498046900,16.2511291503906250,31.7329406738281250,32.9985694885253900,35.4420013427734400,2.4434280395507812,886.0313110351562000,943.5548706054688000,372.9226989746094000,40866
7,1448461955,4330,1171,228.9781951904297000,74.8245773315429700,16.2957000732421880,31.7312507629394530,32.9968986511230500,35.4415588378906250,2.4446558952331543,885.7794189453125000,942.9564819335938000,371.4877014160156000,47421
7,1448461976,4330,1171,228.8050994873047000,74.8172531127929700,16.3268508911132800,31.7256202697753900,32.9913482666015600,35.4393806457519500,2.4480359554290770,885.4113159179688000,942.3092041015625000,370.4845886230469000,61418
7,1448461997,4330,1171,228.6273040771484400,74.8237380981445300,16.3677101135253900,31.7155895233154300,32.9814491271972660,35.4321594238281250,2.4507141113281250,885.0452270507812000,941.9661865234375000,369.1687011718750000,45063
7,1448462021,4330,1171,228.4485931396484400,74.8443603515625000,16.4177608489990230,31.7015209197998050,32.9675712585449200,35.4185485839843750,2.4509809017181396,884.5507202148438000,941.6301269531250000,367.5563964843750000,38193
7,1448462042,4330,1171,227.7203979492187500,74.7997665405273400,16.5408401489257800,31.6816005706787100,32.9479103088378900,35.4039802551269500,2.4560699462890625,883.7539062500000000,940.8934936523438000,363.5903930664062500,52886
7,1448462063,4330,1171,227.2570953369140600,74.8244628906250000,16.6532306671142580,31.6531295776367200,32.9198188781738300,35.3785591125488300,2.4587399959564210,882.5490722656250000,939.8781738281250000,359.9670104980469000,14581
7,1448462084,4330,1171,227.0729064941406200,74.8660430908203100,16.7182006835937500,31.6324806213378900,32.8994483947753900,35.3624801635742200,2.4630279541015625,881.4739990234375000,938.7841186523438000,357.8718872070312500,2738
7,1448462105,4330,1171,226.8995971679687500,74.9270019531250000,16.7933197021484380,31.6066398620605470,32.8739509582519500,35.3432197570800800,2.4692690372467040,880.4752197265625000,937.9420166015625000,355.4486999511719000,12924
7,1448462127,4330,1171,226.9351959228515600,75.0751876831054700,16.8800392150878900,31.5647392272949220,32.8326110839843750,35.3054695129394500,2.4728620052337646,878.7625732421875000,937.0585937500000000,352.6505126953125000,54360
7,1448462150,4330,1171,226.7109069824218800,75.2755966186523400,17.0546894073486330,31.4956092834472660,32.7644004821777340,35.2430801391601560,2.4786760807037354,876.1666259765625000,936.2219848632812000,347.0126037597656000,65308
7,1448462171,4330,1171,227.1687011718750000,75.7424316406250000,17.2543296813964840,31.3805503845214840,32.6508903503418000,35.1344108581543000,2.4835209846496580,871.7426757812500000,934.5947265625000000,340.5639038085937500,34371
7,1448462192,4330,1171,228.2104949951172000,76.3187026977539000,17.3987197875976560,31.2611999511718750,32.5331306457519500,35.0253105163574200,2.4921879768371580,867.1566162109375000,932.8505859375000000,335.8973083496094000,38685